This is the latest recevied weather packets stored in our database for station/object NO4D. If no packets are shown the sender has not sent any weather packets the latest 10 day(s).
| Time | Temp. | Humidity | Pressure | Rain* | Wind** | Luminosity | Snow |
|---|---|---|---|---|---|---|---|
| 1778109008 | 21.11° C | 87% | 1012.5 hPa | 0 mm | - | 1 W/m² | - |
| 1778108704 | 21.11° C | 87% | 1012.5 hPa | 0 mm | - | 5 W/m² | - |
| 1778108402 | 21.67° C | 87% | 1012.6 hPa | 0 mm | - | 5 W/m² | - |
| 1778108099 | 21.67° C | 87% | 1012.7 hPa | 0 mm | - | 4 W/m² | - |
| 1778107794 | 22.22° C | 85% | 1012.7 hPa | 0 mm | - | 6 W/m² | - |
| 1778107492 | 22.78° C | 83% | 1012.4 hPa | 0 mm | - | 10 W/m² | - |
| 1778107188 | 22.78° C | 82% | 1012.3 hPa | 0 mm | - | 18 W/m² | - |
| 1778106884 | 22.78° C | 81% | 1012.5 hPa | 0 mm | - | 21 W/m² | - |
| 1778106582 | 22.78° C | 81% | 1012.8 hPa | 0 mm | - | 17 W/m² | - |
| 1778106278 | 23.33° C | 81% | 1012.5 hPa | 0 mm | - | 20 W/m² | - |
| 1778105975 | 23.33° C | 81% | 1012.8 hPa | 0 mm | - | 30 W/m² | - |
| 1778105672 | 23.33° C | 81% | 1012.6 hPa | 0 mm | - | 31 W/m² | - |
| 1778105370 | 23.33° C | 80% | 1012.6 hPa | 0 mm | - | 38 W/m² | - |
| 1778105065 | 23.89° C | 80% | 1012.6 hPa | 0 mm | - | 27 W/m² | - |
| 1778104762 | 23.89° C | 77% | 1012.4 hPa | 0 mm | - | 72 W/m² | - |
| 1778104458 | 23.89° C | 76% | 1012.4 hPa | 0 mm | - | 75 W/m² | - |
| 1778104154 | 23.89° C | 75% | 1012.5 hPa | 0 mm | - | 72 W/m² | - |
| 1778103851 | 24.44° C | 74% | 1012.5 hPa | 0 mm | - | 67 W/m² | - |
| 1778103549 | 24.44° C | 74% | 1012.6 hPa | 0 mm | - | 74 W/m² | - |
| 1778103246 | 24.44° C | 73% | 1012.9 hPa | 0 mm | - | 78 W/m² | - |
| 1778102944 | 24.44° C | 73% | 1012.9 hPa | 0 mm | - | 77 W/m² | - |
| 1778102639 | 24.44° C | 72% | 1012.7 hPa | 0 mm | - | 102 W/m² | - |
| 1778102334 | 24.44° C | 72% | 1012.7 hPa | 0 mm | - | 150 W/m² | - |
| 1778102030 | 24.44° C | 72% | 1012.9 hPa | 0 mm | - | 174 W/m² | - |
| 1778101728 | 24.44° C | 71% | 1012.7 hPa | 0 mm | - | 174 W/m² | - |
* Rain latest hour (hover to see other rain measurements)
** Current wind speed in m/s (hover to see current wind gust speed)